Location: Peebles
(55.6412°N, 3.1714°W)
Time: 12:31:37
(UTC+00:00)

RS-15 - Pass Details

Date: 04 December 2023
Orbit: 1893 x 2151 km, 64.8° (Epoch: 02 March)

Event Time Altitude Azimuth Distance (km) Brightness Sun altitude
Exits shadow 01:05:12 38° 49° (NE) 2,793 8.9 -54.6°
Drops below altitude 10° 01:11:45 10° 71° (ENE) 4,387 10.1 -54.2°
Sets 01:15:08 0° 76° (ENE) 5,357 10.7 -53.9°
